Weather History for KCMX - September, 2012

Change the Weather History Date:

Thursday, September 13, 2012

  Actual Average (WUND) Record (WUND)
Temperature  
Mean Temperature 58 °F -  
Max Temperature 64 °F - - (-1)
Min Temperature 48 °F - - (-1)
Degree Days  
Heating Degree Days 7    
Growing Degree Days 8 (Base 50)    
Moisture  
Dew Point 46 °F    
Average Humidity 68    
Maximum Humidity 86    
Minimum Humidity 54    
Precipitation  
Precipitation 0.00 in - - ()
Sea Level Pressure  
Sea Level Pressure 30.19 in    
Wind  
Wind Speed 12 mph (West)    
Max Wind Speed 20 mph    
Max Gust Speed 25 mph    
Visibility 10 miles    
Events      
Averages and records for this station are not official NWS values.
T = Trace of Precipitation, MM = Missing Value Source: NWS Daily Summary

Daily Weather History Graph

Daily Weather History Graph

Search for Another Location

Airport or City:

Trip Planner

Search our weather history database for the weather conditions in past years. The results will help you decide how hot, cold, wet, or windy it might be!

Date:

Astronomy

Sep. 13, 2012 Rise Set
Actual Time 7:29 AM EDT 8:08 PM EDT
Civil Twilight 6:58 AM EDT 8:39 PM EDT
Nautical Twilight 6:22 AM EDT 9:16 PM EDT
Astronomical Twilight 5:43 AM EDT 9:54 PM EDT
Moon 4:41 AM EDT (9/13) 6:36 PM EDT (9/13)
Length of Visible Light 13h 40m
Length of Day
12h 39m
Waning Crescent, 7% of the Moon is Illuminated
Sep 13
Waning Crescent
Sep 15
New
Sep 22
First Quarter
Sep 29
Full
Oct 8
Last Quarter

Hourly Weather History & Observations

Time (EDT) Temp. Dew Point Humidity Pressure Visibility Wind Dir Wind Speed Gust Speed Precip Events Conditions
12:53 AM 54.0 °F 42.1 °F 64% 30.13 in 10.0 mi West 11.5 mph - N/A   Clear
1:53 AM 54.0 °F 45.0 °F 72% 30.13 in 10.0 mi West 10.4 mph - N/A   Clear
2:53 AM 55.0 °F 46.9 °F 74% 30.13 in 10.0 mi West 10.4 mph - N/A   Clear
3:53 AM 55.9 °F 48.0 °F 75% 30.14 in 10.0 mi West 10.4 mph - N/A   Clear
4:53 AM 55.0 °F 46.9 °F 74% 30.15 in 10.0 mi West 10.4 mph - N/A   Clear
5:53 AM 55.9 °F 48.0 °F 75% 30.16 in 10.0 mi West 9.2 mph - N/A   Mostly Cloudy
6:53 AM 55.9 °F 46.9 °F 72% 30.16 in 10.0 mi West 11.5 mph - N/A   Scattered Clouds
7:53 AM 55.9 °F 46.9 °F 72% 30.17 in 10.0 mi West 13.8 mph - N/A   Clear
8:53 AM 55.9 °F 46.9 °F 72% 30.17 in 10.0 mi West 13.8 mph - N/A   Clear
9:53 AM 57.0 °F 48.0 °F 72% 30.18 in 10.0 mi West 11.5 mph - N/A   Clear
10:09 AM 57.2 °F 48.2 °F 72% 30.17 in 0.5 mi West 13.8 mph - N/A   Haze
10:19 AM - - N/A% 30.17 in - West 13.8 mph - N/A   Clear
10:53 AM 59.0 °F 48.0 °F 67% 30.19 in - North - - N/A   Clear
11:53 AM 60.1 °F 46.9 °F 62% 30.19 in 10.0 mi WNW 19.6 mph - N/A   Clear
12:53 PM 61.0 °F 46.9 °F 60% 30.20 in 10.0 mi WNW 12.7 mph 21.9 mph N/A   Clear
1:53 PM 62.1 °F 46.9 °F 58% 30.20 in 10.0 mi West 18.4 mph 21.9 mph N/A   Clear
2:53 PM 62.6 °F 46.4 °F 55% 30.20 in 10.0 mi WNW 16.1 mph 25.3 mph N/A   Partly Cloudy
3:53 PM 61.0 °F 46.0 °F 58% 30.22 in 10.0 mi WNW 16.1 mph - N/A   Scattered Clouds
4:53 PM 63.0 °F 46.0 °F 54% 30.22 in 10.0 mi WNW 15.0 mph 20.7 mph N/A   Scattered Clouds
5:53 PM 61.0 °F 45.0 °F 56% 30.23 in 10.0 mi West 15.0 mph - N/A   Scattered Clouds
6:53 PM 60.1 °F 44.1 °F 55% 30.24 in 10.0 mi West 15.0 mph 20.7 mph N/A   Overcast
7:53 PM 57.9 °F 46.0 °F 65% 30.25 in 10.0 mi West 3.5 mph - N/A   Overcast
8:53 PM 57.0 °F 46.0 °F 67% 30.26 in 10.0 mi West 3.5 mph - N/A   Overcast
9:53 PM 55.0 °F 46.9 °F 74% 30.27 in 10.0 mi West 3.5 mph - N/A   Overcast
10:53 PM 53.1 °F 46.9 °F 80% 30.27 in 10.0 mi NW 4.6 mph - N/A   Mostly Cloudy
11:53 PM 48.9 °F 45.0 °F 86% 30.27 in 10.0 mi West 3.5 mph - N/A   Clear